Douglas Bisbee, AZ

3:41 PM MST on May 26, 2018 (GMT -0700)
Bisbee Douglas International

Weather History for KDUG - April, 2013

Change the Weather History Date:

Wednesday, April 17, 2013

  Actual Average Record
Temperature  
Mean Temperature 58 °F 62 °F  
Max Temperature 71 °F 80 °F 92 °F (1962)
Min Temperature 44 °F 43 °F 28 °F (1976)
Degree Days  
Heating Degree Days 7 4  
Month to date heating degree days 79 100  
Since 1 July heating degree days 2522 2461  
Cooling Degree Days 0 1  
Month to date cooling degree days 4 5  
Year to date cooling degree days 6 6  
Growing Degree Days 9 (Base 50)    
Moisture  
Dew Point 22 °F    
Average Humidity 27    
Maximum Humidity 39    
Minimum Humidity 14    
Precipitation  
Precipitation 0.00 in 0.00 in 0.17 in (1997)
Month to date precipitation 0.01 0.12  
Year to date precipitation 0.87 2.01  
Snow  
Snow 0.00 in - - ()
Month to date snowfall 0.0  
Snow Depth 0.00 in    
Sea Level Pressure  
Sea Level Pressure 29.78 in    
Wind  
Wind Speed 17 mph (West)    
Max Wind Speed 35 mph    
Max Gust Speed 43 mph    
Visibility 10 miles    
Events      
T = Trace of Precipitation, MM = Missing Value Source: NWS Daily Summary

Daily Weather History Graph

Daily Weather History Graph

Search for Another Location

Airport or City:

Astronomy

Apr. 17, 2013 Rise Set
Actual Time 5:47 AM MST 6:48 PM MST
Civil Twilight 5:22 AM MST 7:13 PM MST
Nautical Twilight 4:52 AM MST 7:43 PM MST
Astronomical Twilight 4:22 AM MST 8:14 PM MST
Moon 11:11 AM MST (4/17) 12:21 AM MST (4/17)
Length of Visible Light 13h 51m
Length of Day
13h 01m
Waxing Crescent, 43% of the Moon is Illuminated
Apr 17
Waxing Crescent
Apr 18
First Quarter
Apr 25
Full
May 2
Last Quarter
May 9
New

Hourly Weather History & Observations

Time (MST) Temp. Windchill Dew Point Humidity Pressure Visibility Wind Dir Wind Speed Gust Speed Precip Events Conditions
12:56 AM 61.0 °F - 36.0 °F 39% 29.70 in 10.0 mi SSW 13.8 mph 23.0 mph N/A   Clear
1:56 AM 60.1 °F - 32.0 °F 35% 29.67 in 10.0 mi South 19.6 mph - N/A   Clear
2:56 AM 57.9 °F - 30.9 °F 36% 29.68 in 10.0 mi South 16.1 mph - N/A   Clear
3:56 AM 54.0 °F - 28.9 °F 38% 29.70 in 10.0 mi SSW 8.1 mph - N/A   Clear
4:56 AM 52.0 °F - 27.0 °F 38% 29.71 in 10.0 mi East 4.6 mph - N/A   Clear
5:56 AM 54.0 °F - 24.1 °F 31% 29.72 in 10.0 mi SSW 3.5 mph - N/A   Clear
6:56 AM 55.9 °F - 25.0 °F 30% 29.74 in 10.0 mi SW 9.2 mph - N/A   Clear
7:56 AM 60.1 °F - 26.1 °F 27% 29.74 in 10.0 mi West 10.4 mph - N/A   Clear
8:56 AM 63.0 °F - 30.9 °F 30% 29.74 in 10.0 mi WSW 21.9 mph 39.1 mph N/A   Clear
9:56 AM - - - N/A% 29.91 in - North - - N/A   Unknown
10:56 AM 64.0 °F - 35.1 °F 34% 29.76 in 10.0 mi WSW 20.7 mph 31.1 mph N/A   Mostly Cloudy
11:56 AM 68.0 °F - 30.9 °F 25% 29.74 in 10.0 mi West 24.2 mph 36.8 mph N/A   Partly Cloudy
12:56 PM 69.1 °F - 21.9 °F 17% 29.73 in 10.0 mi West 29.9 mph 42.6 mph N/A   Clear
1:56 PM 69.1 °F - 25.0 °F 19% 29.73 in 10.0 mi WSW 25.3 mph 40.3 mph N/A   Clear
2:56 PM 70.0 °F - 19.9 °F 15% 29.72 in 10.0 mi West 27.6 mph 39.1 mph N/A   Clear
3:56 PM 69.1 °F - 19.0 °F 15% 29.74 in 10.0 mi WSW 24.2 mph 35.7 mph N/A   Clear
4:56 PM 66.9 °F - 19.0 °F 16% 29.77 in 10.0 mi WSW 25.3 mph 31.1 mph N/A   Clear
5:56 PM 63.0 °F - 12.9 °F 14% 29.80 in 10.0 mi WNW 24.2 mph 31.1 mph N/A   Clear
6:56 PM 57.0 °F - 15.1 °F 19% 29.84 in 10.0 mi NNW 17.3 mph 26.5 mph N/A   Clear
7:56 PM 54.0 °F - 12.0 °F 19% 29.86 in 10.0 mi NW 18.4 mph - N/A   Clear
8:56 PM 50.0 °F - 10.0 °F 20% 29.90 in 10.0 mi North 8.1 mph - N/A   Clear
9:56 PM 48.0 °F - 9.0 °F 21% 30.02 in 10.0 mi NNW 9.2 mph - N/A   Clear
10:56 PM 48.0 °F - 9.0 °F 21% 29.90 in 10.0 mi NW 15.0 mph - N/A   Clear
11:56 PM 46.0 °F 41.0 °F 9.0 °F 22% 29.92 in 10.0 mi NW 10.4 mph - N/A   Clear